Temp
20 20 19 19 19 19 19 19 19 19 19 19 19 19 19 19 19 20 20 19 19 19 19 19 19 19 19 19 20 20 20 20 20 20 20 20 20 20 20 20 20 21
20 20 20 19 19 19 19 19 19 19 19 19 19 19 19 19 19 19 20 20 19 19 19 19 19 20 20 20 20 20 20 20 20 20 20 20 20 20 20 20 20 21
20 20 20 19 19 19 19 19 19 19 19 19 19 19 19 19 19 19 19 19 20 19 19 19 19 19 20 20 20 19 20 20 20 20 20 20 20 20 20 20 20 20
20 20 20 20 19 19 19 19 19 19 19 19 19 19 19 19 19 19 19 19 19 19 20 19 19 19 20 20 20 19 19 20 20 20 20 20 20 20 20 20 20 20
20 20 20 19 19 19 19 19 19 19 19 19 19 19 19 19 19 19 19 19 19 19 19 20 20 20 20 20 20 19 19 19 20 20 20 20 20 20 20 20 20 20
20 20 20 19 19 19 19 19 19 19 19 19 19 19 19 19 19 19 19 19 19 19 19 19 20 20 20 20 20 20 19 19 19 20 20 20 20 20 20 20 20 20
20 20 20 19 19 19 19 19 19 19 19 19 19 19 19 19 19 19 19 19 19 19 19 19 19 19 19 20 20 20 20 20 19 19 20 20 20 20 20 20 20 20
20 20 19 19 19 19 19 19 19 19 19 19 19 19 19 19 19 19 19 18 18 19 18 18 19 19 19 19 19 20 20 20 19 19 19 20 20 20 20 20 20 20
20 19 19 19 19 19 19 19 19 19 19 18 18 19 19 19 19 19 19 19 19 19 19 18 18 19 19 19 19 19 19 20 20 19 19 19 20 20 20 20 20 20
19 19 19 19 19 19 19 19 19 19 19 19 18 18 19 19 19 19 19 19 19 19 19 19 18 19 19 19 19 19 19 19 20 20 20 20 20 20 20 20 20 21
20 19 19 19 19 19 19 19 19 19 19 19 19 19 19 19 19 19 19 19 19 19 19 19 19 19 19 19 19 19 19 19 19 19 20 20 20 20 20 20 20 20
20 20 19 19 19 19 19 19 19 19 19 19 19 19 19 19 19 19 18 19 19 19 19 19 19 19 19 19 19 19 19 19 19 19 19 20 20 20 20 20 20 20
20 20 20 19 19 19 19 19 19 19 19 19 18 18 18 19 19 19 19 19 19 19 19 19 19 19 19 19 19 19 19 19 19 19 19 19 19 20 20 20 20 20
20 20 20 19 19 19 18 18 18 18 18 18 18 19 19 19 19 19 19 19 18 19 19 19 19 19 19 19 19 19 19 19 19 19 19 19 19 19 20 20 20 20
20 20 20 19 19 18 18 18 18 18 18 18 19 19 19 19 19 19 19 19 19 19 19 19 18 19 19 19 19 19 19 19 19 19 19 19 19 19 19 20 20 20
19 19 19 19 18 18 18 18 18 18 18 18 18 18 19 19 19 19 19 19 19 19 18 18 18 19 19 18 18 18 18 18 18 18 19 19 18 19 19 19 20 20
19 19 19 18 18 18 18 18 18 18 18 18 18 18 18 19 19 19 19 19 19 18 18 18 18 19 19 19 19 18 18 18 18 18 19 19 18 19 19 19 19 19
19 19 18 18 18 18 18 18 18 18 18 18 18 18 18 18 19 19 19 19 18 18 18 18 18 18 19 19 19 18 18 18 18 18 18 18 18 19 19 19 19 19
19 18 18 18 18 18 18 18 18 18 18 18 18 18 18 18 18 18 18 18 18 18 18 18 18 18 18 18 18 18 18 17 17 18 18 18 18 19 19 19 19 19
19 19 19 18 19 19 18 18 18 18 18 19 19 19 18 18 18 18 18 18 18 18 18 18 18 18 18 17 18 18 17 17 17 17 17 17 18 18 19 19 18 18
19 19 19 19 19 18 18 18 18 19 19 19 19 19 19 19 18 18 18 18 18 17 17 17 18 18 18 17 17 17 17 17 17 17 17 17 17 18 18 18 18 19
19 19 19 19 18 18 18 19 19 19 19 19 19 19 19 18 18 18 18 18 17 17 17 17 17 17 17 17 17 17 17 17 17 17 17 17 17 18 18 18 18 19
19 19 19 18 18 18 19 19 19 19 19 18 18 19 18 18 18 18 18 17 17 17 17 17 17 17 16 16 17 17 17 17 17 17 17 17 17 17 17 17 18 18
19 19 19 18 18 18 19 19 18 18 18 18 18 18 18 18 18 18 18 17 17 17 17 17 17 17 16 16 16 16 17 17 17 17 17 17 16 16 17 17 17 18
19 19 19 18 18 18 19 19 18 18 18 18 18 18 18 18 18 18 18 17 17 17 17 17 17 17 16 16 16 16 16 17 17 17 17 17 16 16 17 17 18 18
18 19 19 19 19 19 19 18 18 18 18 18 18 18 18 18 18 18 17 17 17 17 17 17 17 17 16 16 16 16 17 17 16 16 16 16 17 17 17 17 17 17
Height
1535 1535 1535 1536 1537 1537 1538 1539 1540 1541 1542 1544 1545 1547 1548 1549 1551 1552 1553 1554 1556 1557 1558 1559 1560 1562 1563 1565 1566 1566 1567 1568 1569 1570 1571 1572 1573 1574 1575 1576 1577 1577
1533 1534 1534 1535 1536 1537 1538 1539 1539 1540 1541 1543 1544 1546 1547 1549 1550 1551 1552 1554 1555 1556 1557 1558 1559 1560 1561 1563 1564 1565 1565 1566 1567 1568 1569 1570 1571 1573 1574 1575 1575 1576
1531 1532 1533 1534 1535 1536 1538 1539 1539 1539 1540 1541 1543 1544 1546 1547 1549 1550 1551 1552 1554 1555 1556 1556 1557 1558 1560 1561 1562 1563 1563 1564 1565 1567 1568 1569 1570 1571 1572 1573 1574 1575
1530 1531 1531 1533 1534 1535 1537 1538 1539 1539 1540 1540 1541 1543 1544 1546 1548 1549 1550 1551 1552 1553 1554 1555 1556 1557 1558 1559 1560 1561 1561 1562 1564 1565 1566 1567 1568 1569 1571 1572 1573 1574
1529 1529 1530 1532 1533 1534 1535 1536 1538 1539 1539 1540 1540 1541 1543 1544 1546 1547 1548 1549 1550 1551 1552 1553 1554 1555 1556 1557 1558 1559 1560 1561 1562 1563 1564 1565 1566 1568 1569 1570 1571 1572
1527 1528 1529 1530 1531 1532 1533 1534 1536 1537 1538 1539 1540 1541 1542 1543 1544 1545 1546 1547 1548 1549 1550 1551 1552 1553 1554 1555 1556 1557 1558 1559 1560 1561 1562 1563 1565 1566 1567 1568 1569 1570
1525 1527 1527 1529 1530 1531 1532 1533 1534 1536 1537 1538 1539 1539 1540 1541 1542 1543 1544 1546 1547 1547 1548 1549 1550 1551 1552 1553 1554 1555 1556 1557 1558 1559 1560 1562 1563 1564 1565 1566 1567 1568
1524 1525 1526 1527 1528 1529 1530 1531 1532 1534 1535 1536 1537 1537 1538 1539 1540 1541 1543 1544 1545 1546 1547 1547 1548 1549 1550 1551 1552 1553 1554 1555 1556 1557 1558 1559 1560 1561 1563 1564 1565 1566
1522 1524 1525 1526 1526 1527 1528 1529 1530 1532 1533 1534 1535 1536 1536 1537 1538 1539 1541 1542 1543 1544 1545 1545 1546 1547 1548 1549 1550 1551 1552 1553 1554 1555 1556 1557 1558 1559 1560 1561 1563 1563
1520 1522 1523 1524 1525 1526 1526 1527 1528 1529 1531 1532 1533 1534 1534 1535 1536 1537 1538 1539 1540 1541 1542 1543 1544 1545 1546 1547 1547 1548 1549 1550 1551 1552 1553 1554 1555 1556 1558 1559 1560 1561
1519 1520 1521 1522 1523 1524 1525 1526 1527 1528 1529 1530 1530 1531 1532 1533 1533 1534 1535 1536 1537 1538 1539 1540 1541 1542 1543 1543 1544 1545 1546 1547 1548 1549 1550 1551 1552 1554 1555 1556 1557 1558
1517 1518 1519 1520 1521 1522 1523 1524 1525 1526 1527 1527 1528 1529 1530 1530 1531 1531 1532 1533 1534 1535 1536 1537 1538 1539 1539 1540 1540 1541 1542 1544 1545 1546 1547 1548 1549 1551 1552 1553 1554 1555
1515 1516 1517 1518 1519 1520 1521 1522 1523 1524 1524 1525 1526 1527 1527 1528 1528 1529 1529 1530 1531 1533 1533 1534 1535 1536 1537 1537 1537 1537 1539 1540 1541 1542 1543 1544 1546 1547 1549 1550 1551 1553
1513 1514 1515 1516 1517 1518 1520 1520 1521 1522 1522 1523 1524 1524 1525 1525 1526 1526 1527 1527 1528 1529 1530 1531 1532 1532 1533 1533 1534 1534 1535 1536 1537 1538 1539 1541 1542 1543 1545 1547 1548 1549
1512 1513 1514 1515 1516 1517 1518 1518 1519 1520 1520 1521 1521 1522 1522 1523 1523 1524 1524 1524 1525 1525 1526 1527 1527 1528 1528 1529 1530 1531 1532 1533 1534 1535 1536 1537 1538 1539 1541 1543 1544 1546
1510 1511 1513 1514 1514 1515 1516 1516 1517 1517 1518 1518 1519 1520 1520 1520 1521 1521 1521 1521 1521 1522 1522 1522 1523 1523 1523 1524 1525 1526 1527 1529 1529 1531 1532 1533 1534 1535 1537 1539 1540 1542
1509 1510 1511 1512 1512 1513 1513 1514 1515 1516 1516 1517 1517 1517 1518 1518 1518 1518 1518 1518 1518 1518 1518 1518 1518 1518 1518 1520 1520 1521 1522 1523 1524 1526 1527 1528 1529 1530 1532 1534 1537 1538
1507 1508 1509 1510 1510 1511 1511 1512 1513 1514 1514 1515 1515 1515 1516 1516 1515 1515 1515 1515 1515 1514 1514 1513 1513 1513 1513 1514 1515 1516 1516 1516 1518 1521 1522 1523 1526 1526 1527 1529 1532 1534
1505 1506 1507 1507 1508 1508 1509 1510 1510 1511 1512 1513 1513 1513 1513 1513 1512 1512 1512 1512 1511 1510 1510 1509 1509 1509 1508 1508 1508 1509 1510 1509 1510 1513 1516 1518 1521 1522 1524 1525 1527 1530
1503 1504 1504 1505 1505 1506 1507 1507 1508 1509 1509 1510 1510 1511 1510 1510 1509 1509 1509 1508 1508 1506 1506 1504 1504 1504 1503 1502 1502 1502 1502 1503 1504 1506 1509 1512 1515 1517 1519 1521 1523 1527
1501 1502 1502 1503 1504 1504 1505 1505 1506 1506 1507 1508 1508 1508 1508 1507 1507 1506 1505 1505 1504 1503 1501 1500 1499 1499 1498 1496 1495 1495 1495 1497 1498 1500 1502 1505 1509 1512 1514 1516 1519 1523
1499 1500 1500 1501 1502 1502 1503 1503 1504 1504 1505 1505 1505 1505 1505 1504 1504 1503 1502 1501 1500 1499 1498 1496 1494 1493 1492 1490 1489 1488 1489 1490 1492 1495 1497 1499 1502 1506 1509 1512 1515 1518
1498 1499 1499 1500 1500 1500 1501 1502 1502 1502 1503 1503 1502 1502 1502 1501 1500 1500 1499 1498 1497 1496 1495 1492 1489 1488 1486 1485 1484 1483 1483 1484 1486 1489 1491 1493 1497 1501 1504 1508 1511 1514
1497 1498 1499 1499 1499 1499 1500 1500 1500 1500 1501 1501 1500 1500 1499 1499 1498 1497 1496 1496 1494 1493 1492 1489 1486 1483 1482 1481 1480 1479 1479 1479 1481 1484 1486 1489 1493 1497 1500 1504 1507 1510
1496 1497 1497 1498 1498 1498 1498 1498 1498 1499 1499 1499 1498 1498 1497 1497 1496 1495 1494 1493 1492 1491 1489 1486 1483 1480 1479 1478 1477 1477 1476 1476 1478 1480 1482 1485 1489 1492 1496 1499 1502 1505
1496 1496 1495 1496 1496 1496 1496 1496 1497 1498 1498 1497 1497 1496 1495 1495 1494 1493 1492 1491 1490 1488 1486 1484 1481 1478 1476 1475 1475 1474 1474 1474 1475 1477 1479 1482 1485 1488 1491 1494 1498 1501
Wind_Speed
21 21 22 22 19 17 17 16 18 20 20 19 20 21 22 22 22 23 24 24 23 24 25 26 25 23 21 20 22 23 22 21 19 19 20 21 21 21 21 21 19 18
21 21 22 23 20 18 18 17 17 20 21 20 19 20 21 21 21 22 23 23 23 24 25 27 27 24 22 22 22 23 23 22 21 20 21 22 22 22 21 21 19 18
22 22 22 23 22 21 20 19 18 19 21 21 20 20 20 20 20 21 22 22 23 23 25 27 28 26 24 23 23 24 23 23 22 21 21 22 23 23 22 21 20 18
22 23 22 23 24 23 22 21 20 20 21 22 22 21 21 20 20 20 21 22 22 23 24 27 28 28 26 25 24 24 24 23 22 21 22 23 23 24 24 22 21 20
21 22 23 23 25 25 24 24 23 21 21 23 24 24 23 22 21 21 21 22 22 22 23 25 27 29 28 27 26 25 25 24 23 23 23 24 24 25 26 24 23 23
20 22 23 24 25 26 27 26 25 24 22 21 23 25 26 25 24 24 23 23 22 22 22 23 25 27 29 28 28 27 26 25 25 25 25 25 24 24 26 26 25 25
20 21 22 24 25 26 28 27 27 26 24 22 22 23 25 27 27 26 25 25 25 25 24 24 24 25 27 28 29 28 28 27 26 26 27 26 25 25 26 27 27 26
20 20 22 24 25 26 27 28 27 27 27 25 24 23 24 25 27 27 27 28 29 29 28 28 27 26 26 28 29 29 29 29 28 28 29 28 27 27 26 28 29 28
20 21 22 23 25 25 26 27 27 27 27 27 26 25 25 25 26 26 27 28 30 30 30 30 30 30 29 28 29 30 30 30 30 30 30 30 30 29 27 28 30 30
20 21 22 22 23 24 25 26 26 26 27 27 26 26 26 26 26 27 27 28 30 31 31 30 30 30 32 32 31 30 31 32 32 32 32 32 32 31 29 29 30 31
18 20 22 22 22 23 24 24 25 26 26 26 26 26 27 27 27 27 28 29 30 32 33 33 32 30 31 34 35 33 32 32 33 34 34 34 33 33 32 31 30 31
17 19 21 22 22 22 23 23 24 24 25 25 26 26 26 26 27 27 28 29 30 31 33 35 35 33 32 35 37 37 36 35 35 35 35 36 35 35 35 34 32 31
15 17 19 20 21 22 22 23 23 23 24 25 25 25 25 26 27 27 28 29 30 31 33 36 37 36 35 36 38 38 38 38 38 37 37 38 37 36 37 36 35 33
14 15 17 18 19 19 20 21 21 22 23 24 24 24 25 25 26 27 27 28 29 31 33 35 38 39 38 38 39 40 40 40 40 40 39 39 40 39 38 38 37 36
15 16 17 18 18 18 18 18 19 20 21 22 23 23 24 24 24 25 26 27 28 29 31 34 37 41 42 41 41 42 42 42 43 43 42 41 41 41 40 39 39 38
16 17 17 18 18 19 19 19 18 19 20 21 22 23 23 23 24 25 26 27 28 29 31 32 35 39 42 43 44 44 44 44 44 45 45 44 42 41 41 40 39 38
17 18 18 18 18 19 20 19 19 19 19 21 23 23 23 24 25 27 28 28 29 30 31 33 35 37 40 41 43 45 46 46 46 46 47 47 45 43 42 41 40 39
18 18 19 20 20 20 20 20 19 20 21 22 23 24 24 26 27 28 28 29 29 30 31 33 35 36 38 39 41 42 44 46 48 48 49 49 48 46 44 43 42 41
18 20 21 22 22 21 20 20 20 21 22 22 24 24 25 26 27 27 28 28 29 30 32 33 35 36 37 39 41 42 43 44 45 46 48 49 49 48 47 44 43 42
20 21 22 22 21 20 20 21 21 21 22 22 23 23 24 25 25 26 26 27 29 30 32 34 34 35 36 38 40 42 44 44 43 43 46 50 50 49 48 46 43 42
20 20 20 19 19 20 20 21 21 21 21 21 21 22 22 23 23 24 26 27 28 30 32 34 35 35 37 38 39 40 42 44 44 43 44 49 52 50 48 47 44 42
18 19 19 18 18 20 21 20 20 20 20 20 20 21 21 22 22 24 25 27 28 29 31 33 35 36 37 38 37 37 38 41 42 41 43 47 52 52 49 48 46 43
17 17 18 18 19 21 21 20 19 19 19 19 20 21 21 21 22 24 25 26 27 28 29 32 34 33 31 30 31 32 33 37 38 39 41 45 49 50 47 46 46 44
16 16 17 18 19 20 20 19 18 18 18 19 20 20 21 21 23 24 25 25 25 25 26 29 30 28 25 24 25 26 28 33 36 38 40 43 47 48 44 42 42 43
15 16 17 17 18 18 18 18 18 18 18 19 19 20 20 21 23 24 23 23 23 23 24 25 27 24 21 21 22 22 25 28 32 36 39 43 46 49 47 44 42 42
16 16 16 17 17 17 17 17 17 18 18 19 19 19 20 21 21 22 22 22 22 22 22 22 24 22 18 18 18 20 22 26 30 33 37 39 42 47 50 48 44 42
Wind_Direction
220 216 212 212 215 217 219 222 219 214 212 208 204 203 202 203 206 206 206 206 208 209 209 212 216 216 216 216 215 219 225 227 225 221 218 218 218 219 220 221 222 221
220 218 214 213 216 219 221 224 222 218 216 214 211 208 206 206 208 211 212 210 210 212 211 213 217 219 217 215 217 220 224 226 225 222 221 218 217 218 220 221 224 224
221 220 218 215 215 219 224 226 225 222 220 219 217 215 213 212 214 216 217 215 213 213 213 215 219 222 221 218 218 222 225 227 225 223 222 220 217 217 218 220 224 223
223 223 222 217 216 220 226 230 229 227 223 221 221 220 219 220 221 221 221 221 219 217 216 217 221 224 225 223 221 223 227 230 228 224 222 222 219 217 216 220 224 222
226 226 225 221 218 220 225 230 233 233 227 223 223 223 224 226 227 226 225 224 225 224 221 220 222 225 227 228 226 225 227 230 231 226 223 223 222 220 217 219 223 224
230 229 228 226 223 223 225 228 232 235 233 228 225 225 227 228 231 231 230 229 228 229 229 228 227 226 228 230 229 229 228 230 232 229 226 226 225 224 221 220 222 224
237 233 230 229 229 229 229 229 231 234 235 233 230 229 229 229 231 231 231 232 233 232 233 235 234 231 230 231 231 231 230 230 232 232 230 230 229 229 227 223 222 224
244 239 233 232 233 233 233 232 232 232 234 236 235 234 233 232 233 231 229 230 233 234 233 236 239 237 234 234 234 234 232 230 230 232 233 232 232 232 230 227 224 224
247 245 240 237 236 236 237 236 234 233 234 236 238 239 238 236 235 234 232 231 232 233 232 234 239 241 239 238 238 239 237 233 231 232 234 234 233 232 230 228 226 225
247 245 243 241 240 239 239 238 237 237 236 237 240 241 241 238 237 237 236 235 234 233 232 232 236 240 241 241 242 243 243 239 235 234 235 235 235 232 229 228 227 226
244 243 242 242 243 242 241 240 239 240 241 241 242 242 241 240 239 239 239 239 237 235 233 232 233 237 241 242 243 245 245 243 240 238 238 238 237 235 232 230 229 227
246 245 243 242 243 244 245 244 243 244 244 244 244 243 243 243 242 242 241 241 240 238 237 236 234 235 238 241 242 243 243 242 241 241 242 241 240 238 235 234 232 230
251 251 249 247 246 247 248 247 247 247 247 245 245 244 244 245 245 245 245 245 244 242 240 239 237 236 236 237 239 241 241 240 239 240 243 245 244 242 239 236 233 232
252 257 257 252 250 248 248 248 247 247 246 245 245 246 247 247 247 248 248 248 247 246 244 242 240 239 237 236 236 238 240 240 238 237 238 242 245 245 243 239 236 234
252 255 255 253 251 250 249 249 249 248 248 248 249 251 251 251 251 251 252 252 251 250 248 245 243 242 240 239 237 236 237 239 240 238 236 236 239 243 246 244 239 236
251 251 251 251 254 255 253 254 254 253 252 253 254 254 254 254 255 255 256 256 255 254 253 250 247 245 244 243 242 239 238 238 238 238 236 234 232 235 241 245 242 238
251 250 249 251 255 256 253 252 253 255 257 257 256 255 256 257 259 259 258 257 257 257 256 255 252 250 248 247 246 245 244 242 239 237 236 235 232 231 234 239 242 240
252 252 251 252 254 252 248 248 252 257 260 260 259 259 261 263 263 263 261 260 259 259 259 258 257 256 255 253 250 250 249 248 245 241 237 235 235 232 231 233 238 240
257 256 255 256 256 252 250 251 255 258 259 259 260 262 264 265 265 265 265 265 264 263 262 262 262 261 260 258 256 253 251 249 248 243 237 234 234 233 231 230 233 237
254 253 251 251 251 250 251 254 255 255 255 256 260 263 264 265 266 268 270 270 269 269 269 269 269 268 265 263 260 256 252 248 246 242 236 231 231 231 230 228 227 230
244 243 242 243 245 247 249 251 251 252 254 256 260 263 265 268 271 273 275 275 275 276 276 276 275 274 271 267 263 258 253 247 242 240 235 230 228 228 227 226 224 224
240 240 242 244 246 248 248 247 249 251 255 259 263 266 269 272 275 278 281 282 281 281 281 280 280 279 274 268 262 257 252 246 240 237 235 231 228 226 225 225 226 224
243 244 247 249 250 251 250 249 251 255 259 263 267 271 274 277 281 283 284 284 284 284 284 286 287 285 277 266 260 256 250 242 236 233 232 229 225 224 224 226 228 227
246 247 251 253 255 256 253 252 255 259 263 267 271 276 279 281 284 284 284 285 287 287 289 291 292 289 277 265 259 255 248 240 234 230 227 224 222 220 220 221 223 225
247 248 253 257 259 260 259 259 261 264 267 269 272 276 279 281 284 286 287 289 290 291 293 295 296 291 277 266 258 252 247 242 236 231 227 224 221 219 220 220 220 219
250 250 252 257 260 264 267 268 268 269 269 272 275 276 278 282 286 290 292 294 296 297 296 298 301 297 282 270 263 255 249 243 239 235 230 226 222 221 222 223 221 217